[TLELIST] Archives

 

[list_settings.list_name] Current TLEs

April 15th 2014 PST

HST 1 20580U 90037B 14105.14090933 .00002876 00000-0 18499-3 0 4817 2 20580 028.4698 091.5183 0003062 335.2570 103.4334 15.05168840115202 ISS (ZARYA) 1 25544U 98067A 14105.45177205 .00022247 00000-0 39957-3 0 862 2 25544 051.6490 050.4756 0003796 290.0366 173.5431 15.49790392881599 CXO 1 25867U 99040B 14107.06377203 .00000015 00000-0 00000+0 0 155 2 25867 076.7485 323.3871 8203023 274.8802 359.7934 00.37804076 11684 ____________________________________________________________________ These 2-Line ...Continue Reading

[list_settings.list_name] Current TLEs

April 14th 2014 PST

HST 1 20580U 90037B 14103.43088640 .00003025 00000-0 19525-3 0 4806 2 20580 028.4696 102.7531 0003054 316.6535 197.8317 15.05157691114958 ISS (ZARYA) 1 25544U 98067A 14104.48514155 .00025103 00000-0 45028-3 0 795 2 25544 051.6479 055.2627 0003759 286.0620 180.9730 15.49752254881446 CXO 1 25867U 99040B 14104.41820740 .00000040 00000-0 00000+0 0 147 2 25867 076.7417 323.5298 8205337 274.8848 359.7550 00.37805232 11672 ____________________________________________________________________ These 2-Line ...Continue Reading

[list_settings.list_name] Current TLEs

April 13th 2014 PST

HST 1 20580U 90037B 14102.42944007 .00003071 00000-0 19845-3 0 4796 2 20580 028.4694 109.3333 0003033 305.5634 171.8158 15.05154471114805 ISS (ZARYA) 1 25544U 98067A 14103.32235382 .00083249 00000-0 14653-2 0 726 2 25544 051.6474 061.0213 0003735 283.8131 171.7524 15.49723829881268 CXO 1 25867U 99040B 14104.41820740 .00000040 00000-0 00000+0 0 147 2 25867 076.7417 323.5298 8205337 274.8848 359.7550 00.37805232 11672 ____________________________________________________________________ These 2-Line ...Continue Reading

[list_settings.list_name] Current TLEs

April 12th 2014 PST

HST 1 20580U 90037B 14101.16170949 .00002879 00000-0 18535-3 0 4781 2 20580 028.4694 117.6639 0002957 290.9180 143.6730 15.05140277114603 ISS (ZARYA) 1 25544U 98067A 14102.22224017 .00017777 00000-0 31051-3 0 654 2 25544 051.6484 066.4687 0002214 017.5361 054.9834 15.50744522881093 CXO 1 25867U 99040B 14104.41820740 .00000040 00000-0 00000+0 0 147 2 25867 076.7417 323.5298 8205337 274.8848 359.7550 00.37805232 11672 ____________________________________________________________________ These 2-Line ...Continue Reading

[list_settings.list_name] Current TLEs

April 11th 2014 PST

HST 1 20580U 90037B 14101.16170949 .00002879 00000-0 18535-3 0 4781 2 20580 028.4694 117.6639 0002957 290.9180 143.6730 15.05140277114603 ISS (ZARYA) 1 25544U 98067A 14101.26765318 .00016871 00000-0 29553-3 0 581 2 25544 051.6486 071.2024 0002234 014.1303 125.7662 15.50706514880943 CXO 1 25867U 99040B 14101.77504380 .00000107 00000-0 00000+0 0 135 2 25867 076.7337 323.6750 8205771 274.9059 359.9722 00.37801697 11667 ____________________________________________________________________ These 2-Line ...Continue Reading

[list_settings.list_name] Current TLEs

April 10th 2014 PST

HST 1 20580U 90037B 14099.51331999 .00003375 00000-0 21937-3 0 4771 2 20580 028.4696 128.4977 0002871 270.1436 215.0241 15.05131548114364 ISS (ZARYA) 1 25544U 98067A 14100.41814966 .00016373 00000-0 28736-3 0 490 2 25544 051.6490 075.4164 0002200 010.9824 063.4275 15.50674958880814 CXO 1 25867U 99040B 14101.77504380 .00000107 00000-0 00000+0 0 135 2 25867 076.7337 323.6750 8205771 274.9059 359.9722 00.37801697 11667 ____________________________________________________________________ These 2-Line ...Continue Reading

[list_settings.list_name] Current TLEs

April 9th 2014 PST

HST 1 20580U 90037B 14098.45688046 .00003139 00000-0 20323-3 0 4766 2 20580 028.4697 135.4394 0002890 258.8013 250.7840 15.05125465114206 ISS (ZARYA) 1 25544U 98067A 14099.45702758 .00017197 00000-0 30173-3 0 422 2 25544 051.6492 080.1813 0002119 009.6310 095.8970 15.50644755880660 CXO 1 25867U 99040B 14101.77504380 .00000107 00000-0 00000+0 0 135 2 25867 076.7337 323.6750 8205771 274.9059 359.9722 00.37801697 11667 ____________________________________________________________________ These 2-Line ...Continue Reading

[list_settings.list_name] Current TLEs

April 8th 2014 PST

HST 1 20580U 90037B 14097.23577213 .00003973 00000-0 26044-3 0 4755 2 20580 028.4709 143.4734 0002993 240.0909 119.9267 15.05118472114016 ISS (ZARYA) 1 25544U 98067A 14098.43339366 .00017800 00000-0 31237-3 0 355 2 25544 051.6497 085.2569 0002138 002.3727 145.1984 15.50611201880509 CXO 1 25867U 99040B 14099.13049738 .00000148 00000-0 00000+0 0 126 2 25867 076.7260 323.7894 8206829 274.9537 359.9366 00.37798143 11652 ____________________________________________________________________ These 2-Line ...Continue Reading

[list_settings.list_name] Current TLEs

April 7th 2014 PST

HST 1 20580U 90037B 14097.23577213 .00003973 00000-0 26044-3 0 4755 2 20580 028.4709 143.4734 0002993 240.0909 119.9267 15.05118472114016 ISS (ZARYA) 1 25544U 98067A 14097.40289501 .00017757 00000-0 31206-3 0 274 2 25544 051.6492 090.3653 0002254 357.9824 153.4078 15.50573542880344 CXO 1 25867U 99040B 14099.13049738 .00000148 00000-0 00000+0 0 126 2 25867 076.7260 323.7894 8206829 274.9537 359.9366 00.37798143 11652 ____________________________________________________________________ These 2-Line ...Continue Reading

[list_settings.list_name] Current TLEs

April 6th 2014 PST

HST 1 20580U 90037B 14096.18135586 .00004293 00000-0 28243-3 0 4749 2 20580 028.4695 150.3897 0002953 230.1353 165.3507 15.05110700113855 ISS (ZARYA) 1 25544U 98067A 14096.23578505 .00016018 00000-0 28279-3 0 207 2 25544 051.6487 096.1528 0002172 354.6820 117.6039 15.50526843880163 CXO 1 25867U 99040B 14099.13049738 .00000148 00000-0 00000+0 0 126 2 25867 076.7260 323.7894 8206829 274.9537 359.9366 00.37798143 11652 ____________________________________________________________________ These 2-Line ...Continue Reading
  • This mailing list is a public mailing list - anyone may join or leave, at any time.
  • This mailing list is announce-only.

International Space Station (ISS) / Hubble Space Telescope (HST) / Chandra X-Ray Observatory Orbital Data via EMAIL

Privacy Policy:

Private list